EW8714 Weather Reports


time (UTC)temp
C
wind
direction
speed
KPH
gust
KPH
rain 1hr
cm
rain 24hr
cm
rain mn
cm
humidity
%
barometer
mb
20260906215010 32 93 4.8 12.9 0.00 0.00 0.00 32 1015.5
20260906214510 32 5 6.4 12.9 0.00 0.00 0.00 32 1015.6
20260906214007 32 72 4.8 11.3 0.00 0.00 0.00 31 1015.6
20260906213508 32 321 3.2 12.9 0.00 0.00 0.00 32 1015.8
20260906213013 32 20 4.8 12.9 0.00 0.00 0.00 32 1015.9
20260906212510 32 41 3.2 9.7 0.00 0.00 0.00 32 1016.1
20260906212009 32 50 3.2 11.3 0.00 0.00 0.00 33 1016.1
20260906211508 31 47 3.2 11.3 0.00 0.00 0.00 34 1016.2
20260906211008 31 84 3.2 9.7 0.00 0.00 0.00 33 1016.3
20260906210506 31 75 4.8 11.3 0.00 0.00 0.00 34 1016.5
20260906210007 31 42 4.8 11.3 0.00 0.00 0.00 35 1016.6
20260906205506 31 71 1.6 9.7 0.00 0.00 0.00 34 1016.7
20260906205005 32 99 4.8 9.7 0.00 0.00 0.00 34 1016.7
20260906204511 32 336 1.6 6.4 0.00 0.00 0.00 32 1016.8
20260906204009 32 334 1.6 9.7 0.00 0.00 0.00 34 1016.8
20260906203509 31 360 4.8 9.7 0.00 0.00 0.00 34 1016.9
20260906203009 31 131 1.6 9.7 0.00 0.00 0.00 35 1016.9
20260906202507 30 115 3.2 9.7 0.00 0.00 0.00 35 1017.0
20260906202007 30 94 1.6 12.9 0.00 0.00 0.00 35 1017.1
20260906201508 30 91 4.8 12.9 0.00 0.00 0.00 35 1017.1
20260906201007 30 46 6.4 11.3 0.00 0.00 0.00 37 1017.2
20260906200509 31 167 3.2 8.0 0.00 0.00 0.00 36 1017.2
20260906200010 30 78 3.2 11.3 0.00 0.00 0.00 36 1017.3
20260906195509 30 64 4.8 11.3 0.00 0.00 0.00 38 1017.3
20260906195010 30 98 6.4 12.9 0.00 0.00 0.00 40 1017.3
20260906194516 29 242 4.8 14.5 0.00 0.00 0.00 39 1017.3
20260906194008 29 94 8.0 14.5 0.00 0.00 0.00 40 1017.4
20260906193508 30 95 4.8 14.5 0.00 0.00 0.00 37 1017.5
20260906193013 31 17 3.2 11.3 0.00 0.00 0.00 37 1017.5
20260906192511 30 52 4.8 9.7 0.00 0.00 0.00 38 1017.6
20260906192010 30 49 1.6 9.7 0.00 0.00 0.00 33 1017.7
20260906191527 29 5 4.8 9.7 0.00 0.00 0.00 37 1017.9
20260906191027 29 78 4.8 9.7 0.00 0.00 0.00 38 1018.0
20260906190524 30 85 4.8 9.7 0.00 0.00 0.00 39 1018.0
20260906190028 28 79 1.6 8.0 0.00 0.00 0.00 40 1018.1
20260906185524 29 12 3.2 8.0 0.00 0.00 0.00 40 1018.3
20260906185028 29 293 3.2 9.7 0.00 0.00 0.00 40 1018.3
20260906184520 28 359 3.2 9.7 0.00 0.00 0.00 44 1018.5
20260906184008 28 359 3.2 11.3 0.00 0.00 0.00 43 1018.5
20260906183512 28 46 3.2 11.3 0.00 0.00 0.00 44 1018.6
20260906183006 28 52 4.8 11.3 0.00 0.00 0.00 45 1018.7
20260906182505 27 66 3.2 11.3 0.00 0.00 0.00 49 1018.7
20260906182005 27 77 4.8 9.7 0.00 0.00 0.00 50 1018.9
20260906181510 27 49 3.2 9.7 0.00 0.00 0.00 48 1018.9
20260906181012 28 326 1.6 6.4 0.00 0.00 0.00 45 1019.1
20260906180508 28 320 1.6 6.4 0.00 0.00 0.00 48 1019.2
20260906180028 28 359 3.2 6.4 0.00 0.00 0.00 47 1019.3
20260906175530 28 340 0.0 8.0 0.00 0.00 0.00 49 1019.3
20260906175028 27 338 1.6 8.0 0.00 0.00 0.00 51 1019.4
20260906174524 27 347 1.6 6.4 0.00 0.00 0.00 52 1019.6
20260906174025 26 347 3.2 6.4 0.00 0.00 0.00 52 1019.7
20260906173524 27 345 3.2 6.4 0.00 0.00 0.00 51 1019.8
20260906173028 27 306 3.2 6.4 0.00 0.00 0.00 51 1019.8
20260906172529 27 304 1.6 6.4 0.00 0.00 0.00 53 1019.9
20260906172025 26 306 1.6 6.4 0.00 0.00 0.00 54 1020.1
20260906171524 26 299 1.6 6.4 0.00 0.00 0.00 54 1020.2
20260906171025 26 343 1.6 6.4 0.00 0.00 0.00 55 1020.3
20260906170524 26 345 0.0 4.8 0.00 0.00 0.00 57 1020.5
20260906170002 25 344 1.6 6.4 0.00 0.00 0.00 59 1020.4
20260906165503 25 342 3.2 6.4 0.00 0.00 0.00 58 1020.5
20260906165001 25 352 1.6 8.0 0.00 0.00 0.00 60 1020.6
20260906164524 24 263 3.2 8.0 0.00 0.00 0.00 60 1020.6
20260906164027 24 311 3.2 8.0 0.00 0.00 0.00 59 1020.6
20260906163523 24 359 1.6 8.0 0.00 0.00 0.00 61 1020.6
20260906163023 24 298 3.2 8.0 0.00 0.00 0.00 61 1020.6
20260906162522 24 294 3.2 8.0 0.00 0.00 0.00 63 1020.6
20260906162022 23 300 3.2 8.0 0.00 0.00 0.00 62 1020.5
20260906161508 23 319 1.6 8.0 0.00 0.00 0.00 63 1020.5
20260906161006 23 307 3.2 8.0 0.00 0.00 0.00 64 1020.6
20260906160505 23 1 3.2 8.0 0.00 0.00 0.00 65 1020.6
20260906160023 23 11 3.2 9.7 0.00 0.00 0.00 65 1020.6
20260906155525 22 341 3.2 9.7 0.00 0.00 0.00 66 1020.6
20260906155021 22 353 4.8 9.7 0.00 0.00 0.00 67 1020.5
20260906154522 22 319 1.6 9.7 0.00 0.00 0.00 69 1020.5
20260906154021 21 300 4.8 11.3 0.00 0.00 0.00 69 1020.6
20260906153521 21 289 6.4 11.3 0.00 0.00 0.00 69 1020.7
20260906153005 21 307 4.8 8.0 0.00 0.00 0.00 70 1020.7
20260906152504 21 333 3.2 11.3 0.00 0.00 0.00 71 1020.8
20260906152004 21 352 4.8 11.3 0.00 0.00 0.00 71 1020.8
20260906151523 21 333 3.2 9.7 0.00 0.00 0.00 72 1020.8
20260906151027 21 318 4.8 9.7 0.00 0.00 0.00 72 1020.7
20260906150526 20 312 3.2 9.7 0.00 0.00 0.00 73 1020.7
20260906150013 20 303 4.8 12.9 0.00 0.00 0.00 73 1020.8
20260906145510 20 295 4.8 12.9 0.00 0.00 0.00 71 1020.8
20260906145010 20 318 4.8 11.3 0.00 0.00 0.00 71 1020.8
20260906144514 20 333 4.8 11.3 0.00 0.00 0.00 71 1020.7
20260906144005 20 308 4.8 9.7 0.00 0.00 0.00 72 1020.7
20260906143508 20 299 3.2 12.9 0.00 0.00 0.00 74 1020.8
20260906143011 19 312 3.2 12.9 0.00 0.00 0.00 75 1020.7
20260906142507 19 317 3.2 11.3 0.00 0.00 0.00 76 1020.7
20260906142005 19 297 4.8 11.3 0.00 0.00 0.00 76 1020.8
20260906141510 18 293 4.8 11.3 0.00 0.00 0.00 76 1020.8
20260906141009 18 291 6.4 11.3 0.00 0.00 0.00 76 1020.8
20260906140509 18 286 4.8 9.7 0.00 0.00 0.00 76 1020.8
20260906140023 18 293 6.4 9.7 0.00 0.00 0.00 76 1020.7
20260906135506 18 300 4.8 12.9 0.00 0.00 0.00 77 1020.6
20260906135005 17 300 4.8 12.9 0.00 0.00 0.00 77 1020.6
20260906134509 17 284 6.4 11.3 0.00 0.00 0.00 78 1020.6
20260906134006 17 290 8.0 11.3 0.00 0.00 0.00 79 1020.5
20260906133505 17 299 3.2 12.9 0.00 0.00 0.00 80 1020.5
20260906133011 17 294 4.8 12.9 0.00 0.00 0.00 81 1020.4
20260906132509 17 296 6.4 11.3 0.00 0.00 0.00 82 1020.4
20260906132009 17 272 4.8 11.3 0.00 0.00 0.00 84 1020.3
20260906131508 16 266 6.4 11.3 0.00 0.00 0.00 86 1020.3
20260906131008 16 271 4.8 8.0 0.00 0.00 0.00 87 1020.2
20260906130508 16 1 3.2 6.4 0.00 0.00 0.00 88 1020.2
20260906130013 15 2 3.2 6.4 0.00 0.00 0.00 89 1020.1
20260906125512 15 3 3.2 6.4 0.00 0.00 0.00 89 1020.2
20260906125012 15 4 1.6 3.2 0.00 0.00 0.00 88 1020.2
20260906124511 15 5 0.0 3.2 0.00 0.00 0.00 88 1020.2
20260906124011 15 4 0.0 3.2 0.00 0.00 0.00 88 1020.2
20260906123510 15 5 0.0 0.0 0.00 0.00 0.00 88 1020.1
20260906123014 15 5 0.0 0.0 0.00 0.00 0.00 88 1020.1
20260906122510 15 5 0.0 0.0 0.00 0.00 0.00 88 1020.2
20260906122014 15 5 0.0 0.0 0.00 0.00 0.00 87 1020.2
20260906121510 15 5 0.0 0.0 0.00 0.00 0.00 87 1020.3
20260906121010 15 5 0.0 0.0 0.00 0.00 0.00 87 1020.1
20260906120512 15 5 0.0 0.0 0.00 0.00 0.00 88 1020.0
20260906120012 15 5 0.0 0.0 0.00 0.00 0.00 88 1020.0
20260906115512 15 5 0.0 0.0 0.00 0.00 0.00 87 1020.1
20260906115014 15 5 0.0 0.0 0.00 0.00 0.00 87 1020.2
20260906114523 15 5 0.0 0.0 0.00 0.00 0.00 86 1020.3
20260906114015 15 5 0.0 0.0 0.00 0.00 0.00 86 1020.1
20260906113514 15 5 0.0 0.0 0.00 0.00 0.00 85 1020.3
20260906113018 16 5 0.0 0.0 0.00 0.00 0.00 85 1020.3
20260906112516 16 5 0.0 0.0 0.00 0.00 0.00 85 1020.1
20260906112015 16 5 0.0 0.0 0.00 0.00 0.00 85 1020.0
20260906111513 16 5 0.0 0.0 0.00 0.00 0.00 85 1020.0
20260906111013 16 5 0.0 3.2 0.00 0.00 0.00 85 1020.0
20260906110512 16 5 0.0 3.2 0.00 0.00 0.00 85 1019.9
20260906110016 16 5 0.0 3.2 0.00 0.00 0.00 84 1019.7
20260906105517 16 5 0.0 3.2 0.00 0.00 0.00 84 1019.7
20260906105015 16 5 0.0 3.2 0.00 0.00 0.00 84 1019.9
20260906104518 16 6 0.0 3.2 0.00 0.00 0.00 84 1019.7
20260906104016 16 6 0.0 3.2 0.00 0.00 0.00 83 1019.8
20260906103515 17 6 1.6 6.4 0.00 0.00 0.00 83 1019.7
20260906103015 17 6 1.6 6.4 0.00 0.00 0.00 82 1019.7
20260906102514 17 5 0.0 3.2 0.00 0.00 0.00 81 1019.7
20260906102013 17 5 0.0 3.2 0.00 0.00 0.00 81 1019.7
20260906101517 17 5 0.0 3.2 0.00 0.00 0.00 80 1019.7
20260906101016 17 5 0.0 6.4 0.00 0.00 0.00 79 1019.7
20260906100519 17 5 1.6 6.4 0.00 0.00 0.00 79 1019.7
20260906100016 17 5 0.0 3.2 0.00 0.00 0.00 77 1019.8
20260906095514 17 5 0.0 4.8 0.00 0.00 0.00 76 1019.8
20260906095014 17 5 0.0 4.8 0.00 0.00 0.00 76 1019.7
20260906094518 17 5 0.0 4.8 0.00 0.00 0.00 75 1019.7
20260906094018 17 5 0.0 4.8 0.00 0.00 0.00 74 1019.6
20260906093518 18 5 0.0 4.8 0.00 0.00 0.00 73 1019.7
20260906093039 18 5 0.0 3.2 0.00 0.00 0.00 72 1019.7
20260906092516 18 5 0.0 3.2 0.00 0.00 0.00 72 1019.8
20260906092016 18 5 0.0 3.2 0.00 0.00 0.00 71 1019.9
20260906091516 18 5 0.0 4.8 0.00 0.00 0.00 71 1019.9
20260906091014 18 5 0.0 4.8 0.00 0.00 0.00 70 1019.7
20260906090513 18 4 0.0 3.2 0.00 0.00 0.00 69 1019.6
20260906090021 18 4 0.0 4.8 0.00 0.00 0.00 69 1019.4
20260906085518 19 4 1.6 6.4 0.00 0.00 0.00 69 1019.3
20260906085017 19 3 1.6 8.0 0.00 0.00 0.00 67 1019.3
20260906084519 19 3 3.2 8.0 0.00 0.00 0.00 67 1019.2
20260906084014 19 4 1.6 6.4 0.00 0.00 0.00 66 1019.0
20260906083514 19 4 0.0 6.4 0.00 0.00 0.00 65 1019.1
20260906083032 19 4 0.0 6.4 0.00 0.00 0.00 65 1018.9
20260906082519 20 4 0.0 8.0 0.00 0.00 0.00 65 1019.0
20260906082018 20 5 0.0 9.7 0.00 0.00 0.00 64 1019.0
20260906081520 20 5 1.6 9.7 0.00 0.00 0.00 63 1018.9
20260906081020 20 6 1.6 9.7 0.00 0.00 0.00 60 1019.0
20260906080518 20 359 3.2 9.7 0.00 0.00 0.00 58 1019.1
20260906080017 20 5 3.2 11.3 0.00 0.00 0.00 54 1019.2
20260906075516 20 1 4.8 11.3 0.00 0.00 0.00 49 1019.0
20260906075016 20 359 3.2 9.7 0.00 0.00 0.00 49 1019.1
20260906074533 20 6 3.2 8.0 0.00 0.00 0.00 49 1019.2
20260906074017 20 11 3.2 8.0 0.00 0.00 0.00 50 1019.1
20260906073518 20 345 0.0 6.4 0.00 0.00 0.00 52 1019.1
20260906073024 20 292 0.0 0.0 0.00 0.00 0.00 52 1019.1
20260906072518 20 292 0.0 0.0 0.00 0.00 0.00 53 1019.0
20260906072017 20 292 0.0 3.2 0.00 0.00 0.00 52 1018.9
20260906071517 20 291 0.0 4.8 0.00 0.00 0.00 51 1018.9
20260906071016 21 291 0.0 6.4 0.00 0.00 0.00 50 1019.0
20260906070516 21 291 3.2 6.4 0.00 0.00 0.00 49 1018.9
20260906070022 21 291 1.6 6.4 0.00 0.00 0.00 49 1018.7
20260906065526 21 276 1.6 6.4 0.00 0.00 0.00 49 1018.7
20260906065026 21 270 1.6 6.4 0.00 0.00 0.00 50 1018.8
20260906064520 21 270 1.6 6.4 0.00 0.00 0.00 51 1018.9
20260906064019 21 266 0.0 4.8 0.00 0.00 0.00 51 1018.9
20260906063523 20 266 1.6 4.8 0.00 0.00 0.00 50 1018.9
20260906063022 20 266 1.6 4.8 0.00 0.00 0.00 51 1018.9
20260906062521 20 266 0.0 3.2 0.00 0.00 0.00 53 1019.0
20260906062019 21 266 1.6 3.2 0.00 0.00 0.00 53 1019.0
20260906061521 22 266 0.0 3.2 0.00 0.00 0.00 49 1019.0
20260906061018 22 266 0.0 1.6 0.00 0.00 0.00 45 1018.9
20260906060518 22 266 0.0 1.6 0.00 0.00 0.00 44 1018.9
20260906060016 23 266 0.0 0.0 0.00 0.00 0.00 44 1018.9
20260906055516 23 266 0.0 4.8 0.00 0.00 0.00 43 1019.0
20260906055016 23 266 0.0 6.4 0.00 0.00 0.00 42 1019.0
20260906054520 23 266 1.6 6.4 0.00 0.00 0.00 43 1019.0
20260906054020 23 266 3.2 6.4 0.00 0.00 0.00 43 1019.1
20260906053519 23 266 1.6 11.3 0.00 0.00 0.00 42 1019.3
20260906053020 23 265 3.2 11.3 0.00 0.00 0.00 42 1019.4
20260906052520 23 250 6.4 11.3 0.00 0.00 0.00 43 1019.6
20260906052020 22 242 6.4 8.0 0.00 0.00 0.00 44 1019.7
20260906051525 22 238 4.8 8.0 0.00 0.00 0.00 47 1019.6
20260906051023 22 239 4.8 12.9 0.00 0.00 0.00 45 1019.6
20260906050522 22 240 8.0 12.9 0.00 0.00 0.00 44 1019.6
20260906050023 22 219 8.0 11.3 0.00 0.00 0.00 44 1019.8
20260906045521 21 198 8.0 11.3 0.00 0.00 0.00 46 1019.6
20260906045023 21 4 1.6 3.2 0.00 0.00 0.00 52 1019.2
20260906044522 22 4 0.0 1.6 0.00 0.00 0.00 47 1019.0
20260906044020 22 4 0.0 3.2 0.00 0.00 0.00 45 1018.9
20260906043522 22 4 0.0 3.2 0.00 0.00 0.00 44 1018.9
20260906043024 22 4 0.0 0.0 0.00 0.00 0.00 44 1018.9
20260906042524 22 4 0.0 0.0 0.00 0.00 0.00 43 1018.7
20260906042024 22 4 0.0 1.6 0.00 0.00 0.00 41 1018.6
20260906041533 23 4 0.0 3.2 0.00 0.00 0.00 41 1018.5
20260906041023 23 4 0.0 3.2 0.00 0.00 0.00 40 1018.5
20260906040522 23 4 0.0 4.8 0.00 0.00 0.00 40 1018.5
20260906040005 23 4 1.6 4.8 0.00 0.00 0.00 40 1018.5
20260906035504 23 2 0.0 3.2 0.00 0.00 0.00 40 1018.4
20260906035005 23 2 0.0 4.8 0.00 0.00 0.00 39 1018.4
20260906034524 23 2 0.0 4.8 0.00 0.00 0.00 39 1018.3
20260906034025 23 2 0.0 6.4 0.00 0.00 0.00 39 1018.3
20260906033523 23 2 1.6 6.4 0.00 0.00 0.00 38 1018.3
20260906033025 23 4 0.0 3.2 0.00 0.00 0.00 38 1018.2
20260906032525 24 4 0.0 4.8 0.00 0.00 0.00 38 1018.1
20260906032025 24 4 0.0 4.8 0.00 0.00 0.00 37 1018.0
20260906031525 24 4 1.6 6.4 0.00 0.00 0.00 37 1017.9
20260906031025 24 4 1.6 8.0 0.00 0.00 0.00 36 1017.9
20260906030527 24 3 3.2 8.0 0.00 0.00 0.00 36 1017.9
20260906030032 25 315 0.0 4.8 0.00 0.00 0.00 35 1017.6
20260906025524 25 314 1.6 4.8 0.00 0.00 0.00 34 1017.5
20260906025024 25 314 0.0 6.4 0.00 0.00 0.00 34 1017.5
20260906024500 25 314 1.6 6.4 0.00 0.00 0.00 34 1017.4
20260906024100 25 308 1.6 11.3 0.00 0.00 0.00 34 1017.5
20260906023601 26 303 3.2 11.3 0.00 0.00 0.00 33 1017.5
20260906023026 26 285 6.4 12.9 0.00 0.00 0.00 33 1017.3
20260906022524 26 288 6.4 12.9 0.00 0.00 0.00 32 1017.3
20260906022025 26 288 9.7 12.9 0.00 0.00 0.00 32 1017.3
20260906021524 26 289 4.8 12.9 0.00 0.00 0.00 31 1017.3
20260906021023 26 291 6.4 11.3 0.00 0.00 0.00 31 1017.3
20260906020523 26 297 4.8 11.3 0.00 0.00 0.00 31 1017.2
20260906020005 27 290 6.4 11.3 0.00 0.00 0.00 31 1017.1
20260906015505 27 325 4.8 11.3 0.00 0.00 0.00 30 1017.1
20260906015005 27 326 6.4 0.0 0.00 0.00 0.00 29 1017.0
20260906014515 27 306 4.8 12.9 0.00 0.00 0.00 29 1016.9
20260906014004 27 309 6.4 14.5 0.00 0.00 0.00 29 1016.8
20260906013504 28 302 6.4 16.1 0.00 0.00 0.00 28 1016.8
20260906013026 28 307 8.0 16.1 0.00 0.00 0.00 27 1016.8
20260906012627 28 319 6.4 12.9 0.00 0.00 0.00 27 1016.7
20260906012024 28 299 6.4 11.3 0.00 0.00 0.00 27 1016.6
20260906011507 28 300 4.8 11.3 0.00 0.00 0.00 26 1016.6
20260906011008 28 288 4.8 12.9 0.00 0.00 0.00 26 1016.6
20260906010506 29 302 4.8 12.9 0.00 0.00 0.00 26 1016.6
20260906010015 29 304 4.8 16.1 0.00 0.00 0.00 26 1016.6
20260906005504 30 308 8.0 16.1 0.00 0.00 0.00 25 1016.6
20260906005007 30 283 6.4 16.1 0.00 0.00 0.00 25 1016.6
20260906004507 30 297 6.4 16.1 0.00 0.00 0.00 23 1016.6
20260906004006 31 283 8.0 14.5 0.00 0.00 0.00 22 1016.6
20260906003506 31 313 4.8 11.3 0.00 0.00 0.00 21 1016.6
20260906003010 32 343 3.2 8.0 0.00 0.00 0.00 21 1016.6
20260906002509 32 346 3.2 9.7 0.00 0.00 0.00 20 1016.5
20260906002009 33 345 4.8 9.7 0.00 0.00 0.00 20 1016.4
20260906001538 33 354 4.8 11.3 0.00 0.00 0.00 19 1016.5
20260906001029 33 355 3.2 11.3 0.00 0.00 0.00 19 1016.4
20260906000524 33 299 1.6 9.7 0.00 0.00 0.00 19 1016.4
20260906000007 33 282 1.6 9.7 0.00 0.00 0.00 19 1016.3
20260905235507 33 264 3.2 8.0 0.00 0.00 0.00 19 1016.3
20260905235011 33 265 4.8 8.0 0.00 0.00 0.00 19 1016.3
20260905234507 33 255 3.2 8.0 0.00 0.00 0.00 19 1016.3
20260905234010 33 293 0.0 8.0 0.00 0.00 0.00 18 1016.3
20260905233510 34 286 3.2 8.0 0.00 0.00 0.00 19 1016.2
20260905233007 35 266 3.2 6.4 0.00 0.00 0.00 18 1016.3
20260905232506 35 342 1.6 8.0 0.00 0.00 0.00 18 1016.3
20260905232006 35 338 1.6 8.0 0.00 0.00 0.00 19 1016.3
20260905231509 35 301 1.6 4.8 0.00 0.00 0.00 17 1016.3
20260905231011 35 298 1.6 6.4 0.00 0.00 0.00 18 1016.2
20260905230509 35 293 1.6 6.4 0.00 0.00 0.00 18 1016.2
20260905230007 35 293 1.6 8.0 0.00 0.00 0.00 17 1016.1
20260905225507 35 295 1.6 8.0 0.00 0.00 0.00 17 1016.1
20260905225007 35 298 3.2 8.0 0.00 0.00 0.00 17 1016.1
20260905224512 35 300 0.0 8.0 0.00 0.00 0.00 17 1016.1
20260905224014 34 300 0.0 8.0 0.00 0.00 0.00 18 1016.1
20260905223510 34 52 3.2 8.0 0.00 0.00 0.00 18 1016.2
20260905223019 34 58 1.6 6.4 0.00 0.00 0.00 18 1016.2
20260905222510 33 60 1.6 6.4 0.00 0.00 0.00 18 1016.2
20260905222009 34 60 3.2 9.7 0.00 0.00 0.00 19 1016.2
20260905221510 34 60 3.2 8.0 0.00 0.00 0.00 18 1016.3
20260905221011 34 60 3.2 6.4 0.00 0.00 0.00 17 1016.3
20260905220508 34 56 1.6 8.0 0.00 0.00 0.00 18 1016.3
20260905220011 33 58 4.8 14.5 0.00 0.00 0.00 17 1016.4
20260905215514 34 64 8.0 14.5 0.00 0.00 0.00 17 1016.5